Location: Ferchesar
(52.6477°N, 12.4298°E)
Time: 04:31:44
(UTC+01:00)

Vanguard 1 Rocket - Pass Details

Date: 07 December 2021
Orbit: 651 x 4224 km, 34.3° (Epoch: 15 January)

Event Time Altitude Azimuth Distance (km) Brightness Sun altitude
Exits shadow 03:46:08 35° 191° (S) 3,402 10.0 -38.2°
Maximum altitude 03:48:56 37° 170° (S) 3,572 10.2 -37.8°
Drops below altitude 10° 04:06:31 10° 114° (ESE) 6,855 12.4 -35.1°
Sets 04:13:16 0° 108° (ESE) 8,229 13.1 -34.1°
